Regional Weather Roundup
Issued by NWS Bismarck, ND

Home | Current Version | Previous Version | Text Only | Print | Product List | Glossary On
Versions: 1 2 3 4 5 6 7 8 9 10 11 12 13 14 15 16 17 18 19 20 21 22 23 24 25 26 27 28 29 30 31 32 33 34 35 36 37 38 39 40 41 42 43 44 45 46 47 48 49 50
000
ASUS43 KBIS 231720
RWRBIS

NWR BROADCAST TEXT
NATIONAL WEATHER SERVICE BISMARCK ND
1200 PM CDT SAT AUG 23 2014

NOTE: "FAIR" INDICATES FEW OR NO CLOUDS BELOW 12,000 FEET WITH NO
SIGNIFICANT WEATHER AND/OR OBSTRUCTIONS TO VISIBILITY.


CITY           SKY/WX    TMP DP  RH WIND       PRES   REMARKS
WILLISTON      LGT RAIN  57  54  89 NE13      30.05F
MINOT          CLOUDY    57  54  89 NE10      30.06S
MINOT AFB      LGT RAIN  57  57 100 NE12      30.06F
BISMARCK       RAIN      61  60  97 NE15      29.94F FOG
DICKINSON      RAIN      57  56  96 NE14      29.95F FOG
GARRISON         N/A     57  56  96 NE10G21   30.01F
HETTINGER ARPT RAIN      59  57  93 NE18G26   29.91S FOG
JAMESTOWN      RAIN      63  61  93 NE9       29.97F FOG
BEACH            N/A     57  57 100 E21G28    29.94F
CARRINGTON     CLOUDY    59  59 100 E12       30.02S FOG
CROSBY         CLOUDY    55  55 100 NE18G25   30.11F
HARVEY         CLOUDY    59  59 100 NE15G23   30.02F
HAZEN          CLOUDY    57  55  94 NE14G22   29.98F
LINTON         CLOUDY    63  63 100 E17G28    29.89F
MANDAN         CLOUDY    59  59 100 NE16G23   29.94F
OAKES            N/A     66  66 100 E13       29.95S FOG
RUGBY          LGT RAIN  57  57 100 NE14G22   30.05F
STANLEY        CLOUDY    55  55 100 NE12G21   30.06F
TIOGA          LGT RAIN  54  54 100 NE18      30.09F
WATFORD CITY   LGT RAIN  55  55 100 E14G28    30.00F
$$

CITY           SKY/WX    TMP DP  RH WIND       PRES   REMARKS
GRAND FORKS    CLOUDY    66  64  94 N12       30.01F
GRAND FORKS AF CLOUDY    62  62 100 NE10      30.04S
DEVILS LAKE    CLOUDY    61  55  82 NE15G21   30.01F
FARGO          LGT RAIN  72  68  87 E7        29.98S
CANDO          FAIR      59  57  94 NE12G20   30.06F FOG
CAVALIER       CLOUDY    61  59  94 N12       30.07F
GRAFTON        CLOUDY    64  63  94 N12       30.05S
GWINNER        CLOUDY    70  70 100 E12G17    29.96F
LANGDON        CLOUDY    59  57  94 NE16G22   30.08S FOG
ROLLA          FAIR      55  55 100 NE14      30.11F
WALHALLA         N/A     59  59 100 N13       30.09F FOG
$$

CITY           SKY/WX    TMP DP  RH WIND       PRES   REMARKS
ABERDEEN       CLOUDY    67  67 100 E10       29.89F
MOBRIDGE       LGT RAIN  65  65 100 E20G28    29.84F
BUFFALO          N/A     60  59  96 E22G30    29.82F
RAPID CITY     PTSUNNY   68  62  81 NE9       29.85F
GLASGOW        RAIN      54  52  93 NE24G30   30.01R FOG
SIDNEY         CLOUDY    57  55  94 NE16      30.00F
WOLF POINT     RAIN      56  52  86 NE28G37   30.02F FOG
GLENDIVE       CLOUDY    57  55  94 E16       29.96S
MILES CITY     HVY RAIN  63  60  90 E13       29.85F FOG
BAKER          LGT RAIN  59  57  93 E25G32    29.90F
$$

CITY           SKY/WX    TMP DP  RH WIND       PRES   REMARKS
BILLINGS       LGT RAIN  58  57  97 W8        29.87S FOG
GREAT FALLS    RAIN      50  48  93 N17G24    30.13R FOG
REGINA         CLOUDY    55  48  76 NE14      30.21S
ESTEVAN        DRIZZLE   55  52  88 NE12G18   30.13F
$$



USA.gov is the U.S. government's official web portal to all federal, state and local government web resources and services.